Regional Weather Roundup
Issued by NWS

Home | Current Version | Previous Version | Text Only | Print | Product List | Glossary On
Versions: 1 2 3 4 5 6 7 8 9 10 11 12 13 14 15 16 17 18 19 20 21 22 23 24 25 26 27 28 29 30 31 32 33 34 35 36 37 38 39 40 41 42 43 44 45 46 47 48 49 50
000
ASCA42 TJSJ 260610
RWRPR
PUERTO RICO/U.S. VIRGIN ISLANDS HOURLY WEATHER ROUNDUP
NATIONAL WEATHER SERVICE SAN JUAN PR
200 AM AST TUE MAY 26 2015

PRZ001-004-260700-
PUERTO RICO

CITY           SKY/WX    TMP DP  RH WIND       PRES   REMARKS
SAN JUAN LMM   PTCLDY    79  73  83 SE5       30.02F
PONCE          CLEAR     72  68  88 CALM      29.97F
CEIBA          CLEAR     79  72  78 E8        30.03F
$$

PRZ006-007-260700-
U.S. VIRGIN ISLANDS

CITY           SKY/WX    TMP DP  RH WIND       PRES   REMARKS
CHARLOTTE AMA  CLEAR     77  72  83 NE3       30.00F
CHRISTIANSTED  CLEAR     73  72  94 N5        30.01F
$$

HOURLY WEATHER ROUNDUP FOR THE NEWS MEDIA

CITY           SKY/WX    TMP DP  RH WIND       PRES   REMARKS
ORLANDO        MOCLDY    76  72  87 E6        30.17F
NEW YORK       PTCLDY    64  51  62 S12       30.20F
NEWARK         PTCLDY    70  54  56 SW13      30.18F
CHICAGO        PTCLDY    71  62  73 S13       29.93F
HARTFORD       CLOUDY    61  54  77 SW14G22   30.19F
BOSTON         CLOUDY    66  55  67 SW13      30.13F
DALLAS         CLOUDY    64  62  93 CALM      29.91R
PHILADELPHIA   CLEAR     69  53  56 SW8       30.21F
LOS ANGELES    MOCLDY    60  55  83 W6        30.01R
WASHINGTON DC  CLEAR     66  56  70 S5        30.19S


USA.gov is the U.S. government's official web portal to all federal, state and local government web resources and services.